This is the latest recevied weather packets stored in our database for station/object DF9PM-13. If no packets are shown the sender has not sent any weather packets the latest 10 day(s).
| Time | Temp. | Humidity | Pressure | Rain* | Wind** | Luminosity | Snow |
|---|---|---|---|---|---|---|---|
| 1777817421 | 24.44° C | 27% | 1012.6 hPa | - | - | - | - |
| 1777817121 | 24.44° C | 26% | 1012.6 hPa | - | - | - | - |
| 1777816821 | 24.44° C | 26% | 1012.6 hPa | - | - | - | - |
| 1777815921 | 25° C | 28% | 1012.7 hPa | - | - | - | - |
| 1777815621 | 24.44° C | 36% | 1012.7 hPa | - | - | - | - |
| 1777810820 | 22.22° C | 32% | 1013.6 hPa | - | - | - | - |
| 1777810520 | 22.78° C | 31% | 1013.5 hPa | - | - | - | - |
| 1777809620 | 22.78° C | 31% | 1013.5 hPa | - | - | - | - |
| 1777806619 | 23.89° C | 30% | 1013.5 hPa | - | - | - | - |
| 1777805719 | 23.89° C | 28% | 1013.6 hPa | - | - | - | - |
| 1777805419 | 23.33° C | 29% | 1013.7 hPa | - | - | - | - |
| 1777804219 | 25° C | 24% | 1014 hPa | - | - | - | - |
| 1777803919 | 24.44° C | 25% | 1014 hPa | - | - | - | - |
| 1777803018 | 24.44° C | 28% | 1014.1 hPa | - | - | - | - |
| 1777802718 | 24.44° C | 26% | 1014 hPa | - | - | - | - |
| 1777802418 | 23.89° C | 26% | 1014 hPa | - | - | - | - |
| 1777802118 | 24.44° C | 26% | 1014 hPa | - | - | - | - |
| 1777801818 | 23.33° C | 27% | 1014.2 hPa | - | - | - | - |
| 1777801218 | 23.89° C | 28% | 1014.3 hPa | - | - | - | - |
| 1777800918 | 22.78° C | 28% | 1014.3 hPa | - | - | - | - |
| 1777800618 | 22.78° C | 28% | 1014.4 hPa | - | - | - | - |
| 1777800317 | 23.33° C | 29% | 1014.5 hPa | - | - | - | - |
| 1777800017 | 22.78° C | 28% | 1014.6 hPa | - | - | - | - |
| 1777799718 | 22.78° C | 26% | 1014.6 hPa | - | - | - | - |
| 1777799417 | 23.89° C | 31% | 1014.5 hPa | - | - | - | - |
* Rain since midnight (hover to see other rain measurements)
** Current wind speed in m/s (hover to see current wind gust speed)